• En Estados Unidos
  • Lista de países
  • Para 7 días
  • Temperatura del agua
  • Mapa Satelital
  • El tiempo en el mapa
  • Informadores
  • user-avatar
    Iniciar sesión

    Tiempo cada hora Kipungo

    Hoy, 24 Octubre, Miércoles

    Tiempo Temperatura Precipitaciones Viento Presión Humedad
    00:00 +20°C° 0.2 mm 2 mps 655 mmHg 77%
    01:00 +20°C° 0.2 mm 2 mps 654 mmHg 79%
    02:00 +20°C° 0 mm 2 mps 654 mmHg 81%
    03:00 +19°C° 0 mm 2 mps 654 mmHg 83%
    04:00 +20°C° 0 mm 1 mps 654 mmHg 85%
    05:00 +20°C° 0 mm 2 mps 654 mmHg 82%
    06:00 +20°C° 0 mm 3 mps 654 mmHg 79%
    07:00 +21°C° 0 mm 3 mps 655 mmHg 76%
    08:00 +22°C° 0.4 mm 3 mps 655 mmHg 69%
    09:00 +25°C° 0.4 mm 3 mps 656 mmHg 61%
    10:00 +27°C° 0.4 mm 4 mps 656 mmHg 54%
    11:00 +27°C° 1.8 mm 3 mps 655 mmHg 53%
    12:00 +28°C° 1.8 mm 3 mps 655 mmHg 51%
    13:00 +28°C° 1.8 mm 2 mps 655 mmHg 50%
    14:00 +27°C° 4.1 mm 2 mps 654 mmHg 58%
    15:00 +25°C° 4.1 mm 2 mps 653 mmHg 66%
    16:00 +24°C° 4.1 mm 1 mps 653 mmHg 73%
    17:00 +23°C° 3.2 mm 2 mps 653 mmHg 77%
    18:00 +21°C° 3.2 mm 2 mps 653 mmHg 80%
    19:00 +20°C° 3.2 mm 2 mps 654 mmHg 83%
    20:00 +20°C° 1.5 mm 2 mps 654 mmHg 83%
    21:00 +20°C° 1.5 mm 2 mps 655 mmHg 84%
    22:00 +20°C° 1.5 mm 2 mps 655 mmHg 85%
    23:00 +20°C° 0.6 mm 2 mps 655 mmHg 85%

    Mañana, 25 Octubre, Jueves

    Tiempo Temperatura Precipitaciones Viento Presión Humedad
    00:00 +19°C° 0.6 mm 2 mps 655 mmHg 86%
    01:00 +19°C° 0.6 mm 2 mps 654 mmHg 86%
    02:00 +19°C° 0 mm 2 mps 654 mmHg 87%
    03:00 +20°C° 0 mm 1 mps 653 mmHg 87%
    04:00 +19°C° 0 mm 1 mps 653 mmHg 88%
    05:00 +19°C° 0 mm 2 mps 653 mmHg 85%
    06:00 +19°C° 0 mm 2 mps 654 mmHg 82%
    07:00 +20°C° 0 mm 3 mps 654 mmHg 78%
    08:00 +22°C° 0 mm 3 mps 655 mmHg 69%
    09:00 +25°C° 0 mm 4 mps 655 mmHg 59%
    10:00 +27°C° 0 mm 4 mps 655 mmHg 50%
    11:00 +27°C° 0 mm 4 mps 655 mmHg 47%
    12:00 +28°C° 0 mm 4 mps 655 mmHg 43%
    13:00 +29°C° 0 mm 4 mps 654 mmHg 40%
    14:00 +29°C° 0 mm 3 mps 654 mmHg 42%
    15:00 +28°C° 0 mm 3 mps 653 mmHg 44%
    16:00 +28°C° 0 mm 3 mps 653 mmHg 45%
    17:00 +27°C° 0.2 mm 3 mps 653 mmHg 50%
    18:00 +25°C° 0.2 mm 3 mps 654 mmHg 55%
    19:00 +24°C° 0.2 mm 2 mps 654 mmHg 60%
    20:00 +24°C° 0 mm 3 mps 655 mmHg 62%
    21:00 +22°C° 0 mm 3 mps 655 mmHg 65%
    22:00 +21°C° 0 mm 3 mps 655 mmHg 67%
    23:00 +20°C° 0 mm 3 mps 655 mmHg 69%

    Pasado mañana, 26 Octubre, Viernes

    Tiempo Temperatura Precipitaciones Viento Presión Humedad
    00:00 +20°C° 0 mm 2 mps 654 mmHg 71%
    01:00 +19°C° 0 mm 2 mps 654 mmHg 73%
    02:00 +20°C° 0 mm 1 mps 653 mmHg 74%
    03:00 +19°C° 0 mm 1 mps 653 mmHg 76%
    04:00 +19°C° 0 mm 1 mps 653 mmHg 78%
    05:00 +19°C° 0 mm 2 mps 653 mmHg 74%
    06:00 +19°C° 0 mm 2 mps 654 mmHg 71%
    07:00 +20°C° 0 mm 3 mps 655 mmHg 68%
    08:00 +22°C° 0 mm 3 mps 655 mmHg 59%
    09:00 +26°C° 0 mm 3 mps 656 mmHg 51%
    10:00 +28°C° 0 mm 4 mps 656 mmHg 43%
    11:00 +29°C° 0 mm 3 mps 656 mmHg 39%
    12:00 +31°C° 0 mm 3 mps 656 mmHg 36%
    13:00 +32°C° 0 mm 2 mps 655 mmHg 32%
    14:00 +31°C° 0 mm 2 mps 655 mmHg 34%
    15:00 +30°C° 0 mm 1 mps 654 mmHg 37%
    16:00 +29°C° 0 mm 1 mps 654 mmHg 39%
    17:00 +28°C° 0.3 mm 1 mps 654 mmHg 45%
    18:00 +26°C° 0.3 mm 2 mps 654 mmHg 50%
    19:00 +25°C° 0.3 mm 2 mps 654 mmHg 56%
    20:00 +24°C° 0.6 mm 2 mps 655 mmHg 61%
    21:00 +23°C° 0.6 mm 1 mps 655 mmHg 66%
    22:00 +22°C° 0.6 mm 1 mps 656 mmHg 72%
    23:00 +22°C° 0.4 mm 1 mps 655 mmHg 74%

    27 Octubre, Sábado

    Tiempo Temperatura Precipitaciones Viento Presión Humedad
    00:00 +22°C° 0.4 mm 1 mps 655 mmHg 76%
    01:00 +21°C° 0.4 mm 1 mps 655 mmHg 78%
    02:00 +21°C° 0 mm 1 mps 654 mmHg 80%
    03:00 +21°C° 0 mm 1 mps 654 mmHg 81%
    04:00 +21°C° 0 mm 1 mps 654 mmHg 82%
    05:00 +21°C° 0 mm 1 mps 655 mmHg 80%
    06:00 +21°C° 0 mm 1 mps 655 mmHg 78%
    07:00 +22°C° 0 mm 1 mps 656 mmHg 76%
    08:00 +24°C° 0.1 mm 2 mps 656 mmHg 65%
    09:00 +27°C° 0.1 mm 2 mps 657 mmHg 53%
    10:00 +29°C° 0.1 mm 2 mps 657 mmHg 42%
    11:00 +31°C° 0 mm 2 mps 657 mmHg 37%
    12:00 +32°C° 0 mm 2 mps 656 mmHg 33%
    13:00 +35°C° 0 mm 2 mps 656 mmHg 28%
    14:00 +34°C° 0 mm 2 mps 655 mmHg 29%
    15:00 +32°C° 0 mm 2 mps 655 mmHg 31%
    16:00 +32°C° 0 mm 1 mps 654 mmHg 32%
    17:00 +30°C° 0.1 mm 1 mps 654 mmHg 37%
    18:00 +28°C° 0.1 mm 1 mps 654 mmHg 41%
    19:00 +27°C° 0.1 mm 1 mps 654 mmHg 46%
    20:00 +26°C° 0 mm 1 mps 654 mmHg 49%
    21:00 +25°C° 0 mm 2 mps 654 mmHg 53%
    22:00 +24°C° 0 mm 2 mps 655 mmHg 56%
    23:00 +24°C° 0 mm 2 mps 654 mmHg 59%

    28 Octubre, Domingo

    Tiempo Temperatura Precipitaciones Viento Presión Humedad
    00:00 +23°C° 0 mm 2 mps 654 mmHg 62%
    01:00 +23°C° 0 mm 1 mps 653 mmHg 65%
    02:00 +22°C° 0 mm 1 mps 653 mmHg 66%
    03:00 +22°C° 0 mm 1 mps 653 mmHg 67%
    04:00 +22°C° 0 mm 1 mps 653 mmHg 68%
    05:00 +23°C° 0 mm 1 mps 653 mmHg 64%
    06:00 +23°C° 0 mm 2 mps 654 mmHg 60%
    07:00 +24°C° 0 mm 2 mps 655 mmHg 56%
    08:00 +27°C° 0 mm 3 mps 655 mmHg 47%
    09:00 +30°C° 0 mm 3 mps 656 mmHg 37%
    10:00 +33°C° 0 mm 3 mps 656 mmHg 28%
    11:00 +35°C° 0 mm 3 mps 655 mmHg 25%
    12:00 +36°C° 0 mm 2 mps 655 mmHg 22%
    13:00 +37°C° 0 mm 2 mps 654 mmHg 18%
    14:00 +37°C° 0 mm 2 mps 654 mmHg 18%
    15:00 +37°C° 0 mm 2 mps 653 mmHg 18%
    16:00 +36°C° 0 mm 1 mps 653 mmHg 18%
    17:00 +34°C° 0 mm 1 mps 653 mmHg 22%
    18:00 +32°C° 0 mm 1 mps 653 mmHg 26%
    19:00 +30°C° 0 mm 1 mps 653 mmHg 29%
    20:00 +29°C° 0 mm 2 mps 653 mmHg 33%
    21:00 +28°C° 0 mm 2 mps 653 mmHg 37%
    22:00 +27°C° 0 mm 2 mps 653 mmHg 41%
    23:00 +26°C° 0 mm 2 mps 653 mmHg 44%

    29 Octubre, Lunes

    Tiempo Temperatura Precipitaciones Viento Presión Humedad
    00:00 +25°C° 0 mm 1 mps 653 mmHg 47%
    01:00 +25°C° 0 mm 1 mps 652 mmHg 49%
    02:00 +25°C° 0 mm 1 mps 652 mmHg 49%
    03:00 +25°C° 0 mm 2 mps 652 mmHg 48%
    04:00 +25°C° 0 mm 2 mps 652 mmHg 47%
    05:00 +25°C° 0 mm 2 mps 653 mmHg 46%
    06:00 +26°C° 0 mm 3 mps 653 mmHg 45%
    07:00 +27°C° 0 mm 3 mps 654 mmHg 44%
    08:00 +29°C° 0 mm 3 mps 655 mmHg 37%
    09:00 +33°C° 0 mm 3 mps 655 mmHg 31%
    10:00 +35°C° 0 mm 3 mps 655 mmHg 24%
    11:00 +37°C° 0 mm 3 mps 655 mmHg 21%
    12:00 +38°C° 0 mm 2 mps 655 mmHg 17%
    13:00 +39°C° 0 mm 2 mps 654 mmHg 14%
    14:00 +39°C° 0 mm 2 mps 653 mmHg 15%
    15:00 +37°C° 0 mm 1 mps 653 mmHg 15%
    16:00 +36°C° 0 mm 1 mps 652 mmHg 16%
    17:00 +35°C° 0 mm 2 mps 652 mmHg 19%
    18:00 +34°C° 0 mm 2 mps 653 mmHg 23%
    19:00 +31°C° 0 mm 3 mps 653 mmHg 26%
    20:00 +30°C° 0 mm 3 mps 653 mmHg 37%
    21:00 +28°C° 0 mm 3 mps 653 mmHg 48%
    22:00 +26°C° 0 mm 3 mps 653 mmHg 59%
    23:00 +25°C° 0 mm 3 mps 653 mmHg 64%

    30 Octubre, Martes

    Tiempo Temperatura Precipitaciones Viento Presión Humedad
    00:00 +25°C° 0 mm 3 mps 652 mmHg 70%
    01:00 +24°C° 0 mm 3 mps 652 mmHg 75%
    02:00 +23°C° 0 mm 2 mps 652 mmHg 77%
    03:00 +23°C° 0 mm 2 mps 652 mmHg 79%
    04:00 +21°C° 0 mm 2 mps 652 mmHg 81%
    05:00 +23°C° 0 mm 2 mps 652 mmHg 76%
    06:00 +23°C° 0 mm 2 mps 653 mmHg 72%
    07:00 +24°C° 0 mm 2 mps 653 mmHg 67%
    08:00 +27°C° 0 mm 2 mps 654 mmHg 54%
    09:00 +30°C° 0 mm 2 mps 654 mmHg 41%
    10:00 +34°C° 0 mm 2 mps 655 mmHg 27%
    11:00 +36°C° 0 mm 1 mps 655 mmHg 23%
    12:00 +39°C° 0 mm 1 mps 654 mmHg 19%
    13:00 +41°C° 0 mm 1 mps 654 mmHg 15%
    14:00 +40°C° 0 mm 1 mps 653 mmHg 16%
    15:00 +35°C° 0 mm 0 mps 653 mmHg 17%
    16:00 +33°C° 0 mm 0 mps 652 mmHg 18%
    17:00 +33°C° 0 mm 1 mps 652 mmHg 22%
    18:00 +32°C° 0 mm 2 mps 652 mmHg 26%
    19:00 +30°C° 0 mm 3 mps 652 mmHg 30%
    20:00 +29°C° 0 mm 3 mps 653 mmHg 38%
    21:00 +27°C° 0 mm 3 mps 653 mmHg 47%
    22:00 +26°C° 0 mm 3 mps 653 mmHg 55%
    23:00 +25°C° 0.1 mm 2 mps 653 mmHg 61%
    Mostrar más